[[{"header":{"parameterUnit":"m.s-1","parameterCategory":1,"la1":30.2991,"la2":30.254,"lo1":-89.0895,"lo2":-89.0444,"dy":0.0017,"dx":0.0017,"nx":28,"ny":28,"refTime":"2023-11-01T21:00:00:Z","depth":0,"parameterNumber":2,"parameterNumberName":"U-component_of_WINDS"},"data":[0,0,0,0,0,0,0,0,0,0,0,0,0,0,0,0,0,0,0,0,0,0,0,0,0,0,0,0,0,0,0,0,0,0,0,0,0,0,0,0,0,0,0,0,0,0,0,0,0,0,0,0,0,0,0,0,0,0,-2.1982,-2.1982,0,-2.2048,-2.2049,-2.2049,-2.202,-2.2019,-2.2017,-2.2015,-2.2083,-2.2087,-2.209,0,0,0,0,0,0,0,0,0,0,0,0,0,-2.183,-2.1833,-2.1982,-2.1983,-2.1983,-2.2048,-2.2049,-2.205,-2.2021,-2.2019,-2.2017,-2.2015,-2.2082,-2.2086,-2.209,0,0,0,0,0,0,0,0,0,0,0,0,0,-2.1896,-2.1834,-2.1982,-2.1977,-2.1977,-2.2048,-2.2049,-2.205,-2.2021,-2.2019,-2.2016,-2.2014,-2.2081,-2.2086,-2.2091,-2.217,0,0,-2.2106,-2.2108,0,0,0,0,0,0,0,0,-2.1892,-2.1902,-2.1977,-2.1977,-2.1977,-2.2023,-2.202,-2.209,-2.2022,-2.2004,-2.2015,-2.2013,-2.2065,-2.2071,-2.2089,-2.2173,-2.2176,-2.2106,-2.2109,-2.2112,-2.2113,0,0,0,0,0,0,0,-2.1888,-2.1899,-2.2008,-2.1978,-2.1978,-2.1971,-2.1978,-2.2033,-2.2048,-2.2006,-2.2004,-2.2012,-2.2065,-2.2085,-2.2091,-2.2177,-2.2106,-2.2111,-2.2114,-2.2116,-2.233,-2.2333,0,0,0,0,0,0,-2.1883,-2.1895,-2.2006,-2.201,-2.1928,-2.1976,-2.1983,-2.2011,-2.2047,-2.205,-2.2014,-2.201,-2.2077,-2.2085,-2.2093,-2.2189,-2.2112,-2.2116,-2.2119,-2.2327,-2.2331,-2.2333,0,0,0,0,0,0,-2.188,-2.1893,-2.2003,-2.1952,-2.1965,-2.1981,-2.2012,-2.2014,-2.2033,-2.2053,-2.2056,-2.2031,-2.2076,-2.2086,-2.2151,-2.2191,-2.2118,-2.2123,-2.2324,-2.2328,-2.2332,-2.2381,0,0,0,0,0,0,-2.1876,-2.1892,-2.1923,-2.1953,-2.1968,-2.2061,-2.2015,-2.2017,-2.2042,-2.2038,-2.207,-2.2073,-2.2074,-2.2144,-2.2156,-2.2196,-2.2127,-2.2321,-2.2326,-2.2331,-2.2376,-2.2386,-2.2395,0,0,0,0,0,-2.187,-2.1934,-2.1925,-2.1938,-2.2007,-2.2063,-2.2072,-2.2072,-2.2045,-2.2076,-2.2089,-2.2072,-2.2184,-2.2151,-2.2164,-2.2207,-2.2318,-2.2324,-2.233,-2.2372,-2.2384,-2.2395,0,0,0,0,0,0,-2.1909,-2.1938,-2.1928,-2.2003,-2.2031,-2.2058,-2.2097,-2.2085,-2.2121,-2.2116,-2.2115,-2.2122,-2.219,-2.2205,-2.2167,-2.2285,-2.2247,-2.2256,-2.2274,-2.2286,-2.2295,-2.2291,-2.2131,0,0,0,0,0,-2.1926,-2.1969,-2.1992,-2.2056,-2.2071,-2.2082,-2.2106,-2.2104,-2.2133,-2.2144,-2.2162,-2.219,-2.2232,-2.2259,-2.2299,-2.2377,-2.2384,-2.2413,-2.2422,-2.243,-2.2439,-2.2481,-2.2495,-2.2353,-2.2353,-2.2353,0,0,-2.1962,-2.1983,-2.2011,-2.2065,-2.2086,-2.2131,-2.2092,-2.2141,-2.2174,-2.2152,-2.2215,-2.2229,-2.226,-2.2333,-2.2365,-2.2347,-2.2479,-2.2438,-2.2444,-2.2448,-2.2489,-2.2502,-2.2514,-2.2358,-2.2357,-2.2356,0,0,-2.2051,-2.2071,-2.2127,-2.2149,-2.2181,-2.2188,-2.2201,-2.223,-2.2239,-2.2302,-2.2286,-2.2325,-2.2397,-2.242,-2.2441,-2.2538,-2.2524,-2.2551,-2.2601,-2.2643,-2.2654,-2.2664,-2.2699,-2.2712,-2.2558,-2.2559,-2.2559,0,-2.2092,-2.2159,-2.2157,-2.2208,-2.2232,-2.2213,-2.227,-2.2291,-2.2335,-2.2352,-2.233,-2.242,-2.2439,-2.2517,-2.2541,-2.2558,-2.2574,-2.2548,-2.2652,-2.2662,-2.2672,-2.2705,-2.2718,-2.2562,-2.2561,-2.2561,-2.2561,0,-2.2208,-2.2255,-2.2296,-2.2339,-2.2368,-2.2421,-2.2427,-2.2456,-2.2451,-2.246,-2.2524,-2.2547,-2.2591,-2.2609,-2.2604,-2.2686,-2.2673,-2.2652,-2.2614,-2.2688,-2.272,-2.2733,-2.2566,-2.2565,-2.2564,-2.2563,0,0,-2.2325,-2.2365,-2.2381,-2.24,-2.2434,-2.247,-2.2522,-2.2565,-2.259,-2.262,-2.2664,-2.2725,-2.2705,-2.2729,-2.2727,-2.2763,-2.2839,-2.2738,-2.2738,-2.2757,-2.2931,-2.2948,-2.2963,-2.283,-2.2832,-2.2834,-2.2929,0,-2.2417,-2.2509,-2.2509,-2.2594,-2.2637,-2.2619,-2.2664,-2.269,-2.2699,-2.2737,-2.2747,-2.279,-2.2761,-2.2775,-2.281,-2.2823,-2.2875,-2.2816,-2.2871,-2.2873,-2.2865,-2.298,-2.2998,-2.3087,-2.2941,-2.2943,-2.2945,0,-2.2538,-2.2572,-2.2662,-2.2689,-2.2707,-2.2749,-2.2787,-2.2824,-2.2852,-2.2856,-2.2883,-2.2874,-2.2927,-2.2886,-2.2959,-2.2919,-2.2941,-2.2951,-2.2954,-2.296,-2.2915,-2.299,-2.3115,-2.3129,-2.2964,-2.2963,-2.2961,0,-2.2616,-2.2684,-2.2746,-2.2763,-2.2797,-2.2826,-2.2841,-2.2867,-2.2893,-2.2926,-2.2943,-2.2982,-2.3004,-2.3034,-2.3037,-2.3007,-2.3111,-2.307,-2.3116,-2.3116,-2.314,-2.3139,-2.3271,-2.3152,-2.3152,-2.3152,-2.3152,0,-2.272,-2.2776,-2.2782,-2.2821,-2.2882,-2.288,-2.2941,-2.2954,-2.2977,-2.3017,-2.3003,-2.3042,-2.3042,-2.3081,-2.3083,-2.3143,-2.3153,-2.3158,-2.3158,-2.316,-2.316,-2.3176,-2.317,-2.3155,-2.3155,-2.3154,-2.3153,0,-2.2818,-2.2824,-2.2891,-2.2917,-2.2924,-2.2969,-2.2991,-2.3027,-2.3035,-2.3086,-2.3098,-2.311,-2.3155,-2.316,-2.3212,-2.3213,-2.3287,-2.328,-2.3277,-2.3277,-2.3323,-2.3319,-2.3472,-2.3492,-2.3359,-2.336,-2.3361,0,-2.2885,-2.2927,-2.2957,-2.2983,-2.3,-2.3042,-2.3068,-2.3068,-2.3095,-2.313,-2.3163,-2.3206,-2.3242,-2.3314,-2.3327,-2.3367,-2.3362,-2.3412,-2.3368,-2.3368,-2.3364,-2.3362,-2.3366,-2.3422,-2.3423,-2.3424,-2.3425,0,-2.3003,-2.3004,-2.3042,-2.3081,-2.3113,-2.3143,-2.3172,-2.3194,-2.3197,-2.3228,-2.3274,-2.3302,-2.3355,-2.3399,-2.3438,-2.3453,-2.344,-2.3439,-2.3452,-2.3455,-2.3453,-2.3456,-2.3302,-2.3436,-2.3435,-2.3434,-2.3433,-2.3433,-2.3089,-2.3125,-2.3152,-2.3195,-2.3217,-2.3244,-2.3279,-2.3291,-2.3329,-2.3373,-2.3369,-2.342,-2.3447,-2.3498,-2.3516,-2.3556,-2.3539,-2.3558,-2.3563,-2.3568,-2.3573,-2.3445,-2.3563,-2.3562,-2.3562,-2.3562,-2.3562,0,-2.3207,-2.3223,-2.3263,-2.3303,-2.3337,-2.3321,-2.3352,-2.3381,-2.3426,-2.3452,-2.3486,-2.3539,-2.3581,-2.3597,-2.3637,-2.3666,-2.3661,-2.3677,-2.3676,-2.3679,-2.3585,-2.357,-2.368,-2.368,-2.368,-2.368,-2.368,-2.368,-2.3273,-2.3335,-2.3339,-2.3411,-2.3426,-2.3476,-2.3495,-2.352,-2.3541,-2.36,-2.3635,-2.3645,-2.3667,-2.3709,-2.3746,-2.375,-2.3766,-2.3785,-2.3786,-2.3698,-2.3686,-2.3675,-2.3661,-2.3788,-2.3788,-2.3877,-2.3878,-2.3879]},{"header":{"parameterUnit":"m.s-1","parameterCategory":1,"la1":30.2991,"la2":30.254,"lo1":-89.0895,"lo2":-89.0444,"dy":0.0017,"dx":0.0017,"nx":28,"ny":28,"refTime":"2023-11-01T21:00:00:Z","depth":0,"parameterNumber":3,"parameterNumberName":"V-component_of_WINDS"},"data":[0,0,0,0,0,0,0,0,0,0,0,0,0,0,0,0,0,0,0,0,0,0,0,0,0,0,0,0,0,0,0,0,0,0,0,0,0,0,0,0,0,0,0,0,0,0,0,0,0,0,0,0,0,0,0,0,0,0,-8.7861,-8.7862,0,-8.7961,-8.7962,-8.7963,-8.7878,-8.7874,-8.7871,-8.7868,-8.7963,-8.7969,-8.7975,0,0,0,0,0,0,0,0,0,0,0,0,0,-8.759,-8.7595,-8.786,-8.7862,-8.7863,-8.796,-8.7962,-8.7963,-8.7878,-8.7874,-8.787,-8.7866,-8.7961,-8.7968,-8.7975,0,0,0,0,0,0,0,0,0,0,0,0,0,-8.77,-8.7597,-8.786,-8.7833,-8.7831,-8.796,-8.7962,-8.7963,-8.7879,-8.7874,-8.7869,-8.7864,-8.7959,-8.7967,-8.7976,-8.8135,0,0,-8.8003,-8.8006,0,0,0,0,0,0,0,0,-8.7694,-8.771,-8.7835,-8.7835,-8.7833,-8.7902,-8.7901,-8.8021,-8.7881,-8.7861,-8.7867,-8.7861,-8.7946,-8.7956,-8.7986,-8.814,-8.8144,-8.8003,-8.8009,-8.8012,-8.8015,0,0,0,0,0,0,0,-8.7686,-8.7705,-8.79,-8.7837,-8.7836,-8.7813,-8.7823,-8.7923,-8.7932,-8.7862,-8.7856,-8.787,-8.7945,-8.7978,-8.7988,-8.8145,-8.8003,-8.8011,-8.8016,-8.802,-8.8435,-8.844,0,0,0,0,0,0,-8.7683,-8.77,-8.7897,-8.7903,-8.775,-8.7822,-8.7833,-8.7885,-8.793,-8.7932,-8.7874,-8.7865,-8.7965,-8.7977,-8.7991,-8.8181,-8.8012,-8.8021,-8.8026,-8.8429,-8.8436,-8.8442,0,0,0,0,0,0,-8.7677,-8.7701,-8.7893,-8.78,-8.7822,-8.7833,-8.7891,-8.789,-8.7922,-8.794,-8.794,-8.7907,-8.7962,-8.7978,-8.81,-8.8183,-8.8025,-8.8032,-8.8422,-8.8431,-8.8439,-8.8562,0,0,0,0,0,0,-8.767,-8.77,-8.7762,-8.7802,-8.7828,-8.8003,-8.7896,-8.7895,-8.7939,-8.7928,-8.797,-8.7972,-8.7959,-8.8088,-8.8109,-8.8192,-8.8039,-8.8415,-8.8426,-8.8436,-8.855,-8.8573,-8.8593,0,0,0,0,0,-8.766,-8.779,-8.7765,-8.7789,-8.7906,-8.8008,-8.8023,-8.8007,-8.7946,-8.8007,-8.8018,-8.7971,-8.817,-8.8101,-8.8124,-8.8211,-8.8409,-8.8423,-8.8436,-8.8541,-8.8569,-8.8593,0,0,0,0,0,0,-8.7757,-8.7795,-8.7768,-8.7915,-8.7959,-8.7994,-8.8071,-8.8037,-8.8098,-8.8085,-8.806,-8.8071,-8.82,-8.8217,-8.814,-8.8367,-8.828,-8.8298,-8.8352,-8.8379,-8.84,-8.8393,-8.8046,0,0,0,0,0,-8.7796,-8.7878,-8.7906,-8.8033,-8.8057,-8.8061,-8.8104,-8.8089,-8.8132,-8.815,-8.8169,-8.8212,-8.8284,-8.8332,-8.8399,-8.8552,-8.856,-8.8623,-8.8644,-8.8662,-8.8678,-8.876,-8.8789,-8.8485,-8.8485,-8.8485,0,0,-8.7876,-8.7907,-8.796,-8.8053,-8.8086,-8.8169,-8.8077,-8.8169,-8.823,-8.8163,-8.8281,-8.8297,-8.8342,-8.8481,-8.8543,-8.8499,-8.8764,-8.8679,-8.8692,-8.8699,-8.8777,-8.8805,-8.8831,-8.8494,-8.8492,-8.8491,0,0,-8.8065,-8.8097,-8.8207,-8.8243,-8.8294,-8.8295,-8.8322,-8.8362,-8.8371,-8.8489,-8.8441,-8.8512,-8.8637,-8.8672,-8.8706,-8.891,-8.8868,-8.8932,-8.9044,-8.9125,-8.9149,-8.917,-8.9243,-8.9269,-8.8948,-8.8948,-8.8949,0,-8.8158,-8.8284,-8.8267,-8.8365,-8.8407,-8.8352,-8.8463,-8.8497,-8.8566,-8.8596,-8.8547,-8.8703,-8.873,-8.8876,-8.8926,-8.8956,-8.8984,-8.8927,-8.9147,-8.9168,-8.9187,-8.9257,-8.9284,-8.8956,-8.8955,-8.8954,-8.8953,0,-8.8396,-8.8484,-8.8567,-8.8639,-8.869,-8.8793,-8.879,-8.8844,-8.8824,-8.883,-8.8951,-8.8981,-8.9054,-8.9087,-8.9067,-8.9231,-8.9203,-8.9151,-8.9062,-8.9224,-8.9289,-8.9315,-8.8967,-8.8964,-8.8962,-8.896,0,0,-8.8648,-8.8711,-8.8742,-8.8774,-8.8827,-8.8894,-8.8994,-8.9068,-8.9115,-8.9164,-8.9247,-8.9355,-8.9308,-8.9346,-8.933,-8.94,-8.9561,-8.934,-8.934,-8.938,-8.9743,-8.9782,-8.9813,-8.9533,-8.9538,-8.9542,-8.9739,0,-8.884,-8.9018,-8.9006,-8.9172,-8.9253,-8.9203,-8.929,-8.9331,-8.934,-8.9408,-8.9416,-8.9493,-8.9425,-8.9448,-8.9516,-8.9527,-8.9633,-8.9512,-8.9609,-8.9612,-8.96,-8.9847,-8.9888,-9.0072,-8.9764,-8.9768,-8.9771,0,-8.9088,-8.915,-8.9325,-8.9367,-8.9401,-8.948,-8.9547,-8.9613,-8.9658,-8.9659,-8.9704,-8.9676,-8.9775,-8.9684,-8.982,-8.9738,-8.9777,-8.9788,-8.9795,-8.9803,-8.9702,-8.9862,-9.0131,-9.0159,-8.9811,-8.9808,-8.9805,0,-8.9255,-8.9382,-8.9503,-8.9532,-8.9584,-8.9641,-8.9665,-8.9705,-8.975,-8.9808,-8.9837,-8.9905,-8.9942,-8.9994,-8.9984,-8.9919,-9.0123,-9.0031,-9.0125,-9.0126,-9.0171,-9.0168,-9.045,-9.0195,-9.0195,-9.0194,-9.0194,0,-8.9471,-8.958,-8.958,-8.9654,-8.9775,-8.9759,-8.9878,-8.9895,-8.9931,-9.0007,-8.9966,-9.0037,-9.002,-9.0091,-9.0083,-9.0197,-9.0213,-9.0216,-9.0213,-9.022,-9.022,-9.0245,-9.0232,-9.0202,-9.02,-9.0199,-9.0197,0,-8.9679,-8.9683,-8.9812,-8.9851,-8.9864,-8.9951,-8.9983,-9.0053,-9.0059,-9.0155,-9.0176,-9.0185,-9.0266,-9.0261,-9.0352,-9.0347,-9.0487,-9.0468,-9.0473,-9.0469,-9.0564,-9.0555,-9.0872,-9.0912,-9.0632,-9.0634,-9.0636,0,-8.9816,-8.99,-8.9949,-8.9999,-9.0027,-9.0106,-9.0153,-9.0141,-9.0191,-9.0249,-9.0312,-9.0389,-9.0451,-9.0582,-9.0595,-9.0664,-9.0647,-9.0753,-9.0656,-9.0662,-9.0649,-9.0644,-9.0652,-9.0772,-9.0775,-9.0777,-9.0779,0,-9.0061,-9.0059,-9.013,-9.0203,-9.0261,-9.0316,-9.0367,-9.0409,-9.0401,-9.0459,-9.0543,-9.0591,-9.0685,-9.0762,-9.0828,-9.085,-9.0814,-9.081,-9.0835,-9.0844,-9.0843,-9.0845,-9.0525,-9.0803,-9.08,-9.0798,-9.0797,-9.0796,-9.0238,-9.031,-9.0357,-9.0437,-9.0475,-9.0524,-9.0592,-9.0607,-9.0678,-9.0755,-9.0742,-9.0836,-9.0878,-9.0964,-9.0992,-9.1064,-9.1025,-9.1062,-9.1072,-9.1081,-9.1092,-9.0832,-9.1075,-9.1075,-9.1074,-9.1074,-9.1073,0,-9.0481,-9.0509,-9.0583,-9.0657,-9.0721,-9.0683,-9.0738,-9.0792,-9.0876,-9.092,-9.0982,-9.1078,-9.1153,-9.1173,-9.1244,-9.1298,-9.1283,-9.1317,-9.1313,-9.1319,-9.1122,-9.1093,-9.1328,-9.1328,-9.1328,-9.1328,-9.1328,-9.1328,-9.0615,-9.0736,-9.074,-9.0878,-9.0904,-9.0998,-9.1032,-9.1076,-9.1112,-9.1222,-9.1285,-9.1298,-9.1332,-9.1406,-9.1472,-9.1476,-9.1504,-9.1545,-9.1542,-9.1358,-9.1333,-9.1308,-9.1281,-9.1551,-9.1552,-9.1733,-9.1734,-9.1736]}]]